Total_Precipitation_Accumulation
1.00 0.93 1.02 0.81 0.66 0.68 0.57 0.57 0.49 0.46 0.37 0.40 0.39 0.34 0.31 0.31 0.32 0.35 0.45 0.65 0.57 0.41 0.49 0.55 0.67 0.79 0.84 1.03 1.07 0.97 0.73 0.52 0.56 0.79 1.03 1.19 0.78 0.56 0.46 0.46 0.50 0.49 0.59
1.35 1.52 1.68 1.94 1.60 0.96 0.76 0.83 0.78 0.81 0.78 0.77 0.65 0.52 0.37 0.33 0.35 0.40 0.40 0.43 0.70 0.61 0.50 0.69 0.77 0.93 1.06 1.31 1.62 1.68 1.65 1.33 1.24 1.29 1.37 1.02 0.89 0.80 0.61 0.56 0.50 0.50 0.48
1.06 1.41 1.99 1.93 1.96 1.87 1.44 1.25 1.41 1.50 1.14 1.00 0.83 0.85 0.80 0.67 0.54 0.40 0.35 0.29 0.35 0.51 0.57 0.47 0.53 0.88 1.20 1.65 2.10 2.60 2.90 2.89 2.77 2.45 1.80 1.31 1.35 1.37 1.19 1.12 1.17 1.12 0.79
0.92 1.11 1.21 1.39 1.41 1.31 1.33 1.16 0.97 1.00 0.97 0.86 0.68 0.47 0.36 0.36 0.28 0.23 0.22 0.22 0.35 0.46 0.71 0.83 0.67 0.86 1.11 1.22 1.43 1.77 2.34 2.80 3.01 3.00 3.27 3.56 3.07 2.46 2.35 2.30 2.13 2.07 1.97
0.52 0.47 0.52 0.63 0.84 0.87 0.91 0.93 0.84 0.83 0.78 0.74 0.53 0.40 0.34 0.27 0.20 0.26 0.29 0.34 0.41 0.44 0.45 0.85 1.08 1.09 1.07 0.98 0.91 1.22 1.45 1.69 1.99 2.22 2.43 2.63 2.60 2.43 2.31 2.39 2.43 2.20 1.97
0.88 0.80 0.61 0.54 0.42 0.40 0.44 0.42 0.46 0.56 0.63 0.50 0.35 0.31 0.34 0.32 0.28 0.31 0.35 0.39 0.32 0.30 0.27 0.31 0.42 0.42 0.51 0.67 0.85 0.95 0.99 1.11 1.31 1.28 1.15 1.19 1.29 1.35 1.48 1.62 1.61 1.75 1.85
1.08 1.00 0.83 0.69 0.52 0.34 0.26 0.26 0.34 0.53 0.74 0.71 0.63 0.48 0.32 0.22 0.24 0.29 0.31 0.32 0.31 0.28 0.28 0.26 0.26 0.29 0.34 0.42 0.59 0.74 0.74 0.75 0.90 1.05 1.10 1.09 0.98 0.88 0.97 1.14 1.29 1.49 1.77
1.29 1.05 0.89 0.88 0.75 0.68 0.60 0.60 0.53 0.56 0.60 0.77 0.76 0.61 0.51 0.43 0.36 0.20 0.16 0.19 0.23 0.27 0.31 0.33 0.33 0.26 0.25 0.25 0.32 0.53 0.62 0.56 0.54 0.84 0.95 0.95 1.16 1.36 1.49 1.53 1.34 1.18 1.24
1.46 1.65 1.97 1.65 1.14 1.16 1.26 1.30 1.36 1.34 1.14 0.92 0.81 0.87 0.61 0.42 0.32 0.36 0.25 0.21 0.21 0.21 0.23 0.30 0.32 0.28 0.23 0.25 0.26 0.31 0.49 0.77 0.86 0.90 1.04 1.09 1.20 1.28 1.22 1.32 1.42 1.50 1.56
1.72 1.88 2.22 2.82 3.28 2.84 2.01 1.71 1.57 1.43 1.53 1.39 1.35 1.09 0.91 0.65 0.49 0.35 0.25 0.29 0.35 0.38 0.34 0.36 0.43 0.45 0.45 0.45 0.52 0.60 0.62 0.61 0.84 1.22 1.67 1.86 2.00 2.10 1.92 1.77 1.86 1.83 2.66
2.09 1.89 1.93 2.04 2.04 2.23 2.70 2.47 2.01 1.90 1.79 1.55 1.30 1.07 0.97 0.92 0.93 0.82 0.46 0.27 0.29 0.35 0.41 0.42 0.41 0.53 0.72 0.85 0.85 0.79 0.98 1.05 0.93 1.39 1.81 2.20 2.19 2.51 3.12 3.44 3.50 3.31 3.01
1.85 1.74 1.58 1.49 1.50 1.53 1.63 1.99 2.01 1.74 1.66 1.72 1.68 1.57 1.30 1.21 1.00 1.14 1.05 0.67 0.58 0.44 0.38 0.37 0.40 0.42 0.57 0.82 1.00 1.06 0.97 0.96 1.07 1.38 1.61 2.00 2.19 2.26 2.92 3.73 4.32 4.01 3.49
1.76 1.68 1.56 1.60 1.51 1.52 1.56 1.64 1.77 1.70 1.53 1.41 1.37 1.42 1.61 1.63 1.56 1.56 1.56 1.16 0.83 0.54 0.48 0.32 0.24 0.31 0.40 0.41 0.50 0.88 0.98 1.00 1.12 1.44 1.71 2.17 2.28 2.13 2.14 2.80 3.78 4.15 4.40
1.56 1.90 1.82 1.79 1.87 1.85 1.83 1.85 1.87 1.88 1.79 1.72 1.74 1.68 1.62 1.64 1.83 1.98 2.05 2.09 1.93 1.21 0.76 0.55 0.44 0.56 0.65 0.72 0.91 1.10 0.84 1.00 1.02 1.20 1.72 2.23 2.74 2.96 2.77 2.60 2.70 2.95 3.48
1.23 1.34 1.47 1.39 1.41 1.44 1.41 1.49 1.50 1.45 1.59 1.67 1.58 1.51 1.51 1.37 1.42 1.59 1.91 2.34 2.98 2.67 1.63 1.00 0.98 1.01 1.09 1.19 1.42 1.29 1.16 1.50 1.50 1.47 1.51 1.56 1.50 1.66 1.79 2.06 2.37 2.49 3.00
0.78 0.78 0.86 0.91 0.98 1.06 1.21 1.32 1.33 1.40 1.53 1.58 1.64 1.72 1.71 1.67 1.66 1.51 1.49 1.73 2.07 2.55 2.37 1.29 1.18 1.18 1.36 1.63 2.11 2.01 1.90 2.22 1.79 1.61 1.53 1.22 1.07 1.01 1.10 1.15 1.11 1.15 1.51
0.45 0.42 0.30 0.30 0.36 0.40 0.55 0.77 0.93 1.12 1.31 1.54 1.85 2.12 2.26 2.34 2.49 2.47 2.58 2.76 2.92 3.15 3.22 2.08 1.64 1.51 1.54 1.59 1.56 1.42 1.44 1.36 1.45 1.80 1.76 1.61 1.35 1.12 0.97 0.95 1.02 0.96 0.98
0.38 0.37 0.39 0.37 0.33 0.32 0.31 0.29 0.36 0.44 0.53 0.66 0.88 1.12 1.21 1.35 1.59 1.70 1.92 2.12 2.49 2.98 3.56 2.81 2.05 1.91 1.81 1.67 1.49 1.26 1.19 1.29 1.33 1.89 2.10 2.09 1.87 1.47 1.38 1.38 1.26 1.21 1.26
0.74 0.93 0.65 0.50 0.42 0.39 0.35 0.36 0.42 0.50 0.60 0.70 0.79 0.85 0.97 1.10 1.13 1.18 1.23 1.33 1.43 1.61 1.96 2.00 1.57 1.31 1.35 1.53 1.73 1.74 1.58 1.49 1.43 1.95 2.05 2.26 2.23 2.01 1.65 1.53 1.60 1.75 1.85
0.78 0.96 1.40 0.98 0.86 0.79 0.69 0.55 0.56 0.59 0.65 0.82 0.90 0.97 1.04 1.26 1.38 1.49 1.83 2.05 1.99 1.95 1.83 1.71 1.69 1.53 1.33 1.29 1.38 1.41 1.40 1.27 1.09 1.02 1.35 1.95 2.11 1.90 1.91 1.62 1.47 1.50 1.79
0.98 0.88 0.94 1.00 0.90 0.79 0.98 0.93 0.83 0.93 0.92 1.12 1.42 1.37 1.52 1.76 1.92 1.80 1.64 1.51 1.70 1.83 1.94 2.04 1.83 1.44 1.26 1.18 1.20 1.25 1.35 1.38 1.40 1.34 1.19 1.41 1.17 1.13 1.26 1.49 1.44 1.59 1.75
1.26 1.10 1.11 1.02 0.99 1.08 1.93 1.83 1.49 1.32 1.41 1.40 1.79 1.87 1.86 2.31 1.86 2.05 1.99 1.90 1.86 1.84 1.66 1.51 1.39 1.28 1.18 1.22 1.31 1.51 1.65 1.79 1.81 1.36 1.36 1.53 1.32 1.20 0.97 0.93 1.31 1.53 2.06
1.13 1.13 1.08 1.18 1.15 1.27 2.16 1.83 1.61 1.14 1.35 1.58 1.49 1.56 1.43 1.51 1.77 1.28 1.61 1.66 1.53 1.61 1.55 1.46 1.30 1.13 1.15 1.24 1.58 1.72 1.69 1.76 1.65 1.37 1.68 1.99 1.69 1.47 1.23 1.18 1.25 1.34 1.62
1.21 1.29 1.22 1.37 1.50 1.89 2.36 1.84 1.67 1.07 0.94 1.07 0.91 0.89 0.89 0.87 1.09 1.19 1.03 1.11 1.19 1.31 1.61 1.78 1.82 1.80 1.83 1.78 1.84 2.02 1.86 1.83 1.69 1.43 1.27 1.53 1.26 1.25 1.20 1.15 1.34 1.24 1.28
1.46 1.48 1.44 1.45 1.50 1.79 2.23 1.91 1.42 1.03 0.99 1.05 1.00 0.98 1.13 0.98 1.59 1.77 1.36 1.29 1.36 1.32 1.68 1.89 1.84 1.95 2.02 1.96 1.82 1.74 1.67 1.71 1.56 0.96 0.76 0.87 0.95 1.16 1.30 1.02 0.82 1.12 1.16
1.37 1.41 1.40 1.33 1.50 1.30 1.67 1.50 1.34 0.94 0.87 0.86 0.78 0.78 1.26 1.11 1.41 1.32 1.05 0.84 0.88 0.77 0.78 0.87 0.88 0.90 0.93 0.98 1.15 0.93 0.89 1.35 1.34 1.45 0.87 1.27 0.98 0.96 1.43 0.99 0.77 0.78 0.69